Miscellaneous Local Product
Issued by NWS Hastings, NE

Home | Current Version | Previous Version | Text Only | Print | Product List | Glossary Off
Versions: 1 2 3 4 5 6 7 8 9 10 11 12 13 14 15 16 17 18 19 20 21 22 23 24 25 26 27 28 29 30 31 32 33 34 35 36 37 38 39 40 41 42 43 44 45 46 47 48 49 50

000
AXUS43 KGID 010002
MISGRI

GID CWA HOURLY WEATHER ROUNDUP
NATIONAL WEATHER SERVICE HASTINGS NE
700 PM CDT TUE SEP 30 2014

NOTE: "FAIR" INDICATES FEW OR NO CLOUDS BELOW 12,000 FEET WITH NO
SIGNIFICANT WEATHER AND/OR OBSTRUCTIONS TO VISIBILITY.

...SOUTH CENTRAL NEBRASKA...

CITY           SKY/WX    TMP DP  RH WIND       PRES   REMARKS
GRAND ISLAND   CLEAR     69  61  75 SE7       29.72S
HASTINGS       PTCLDY    70  58  65 SE7       29.72F
KEARNEY        PTCLDY    72  55  56 SE10      29.72S
ORD            CLEAR     70  47  43 SW7       29.67S
YORK           CLEAR     64  63  94 SE7       29.74S
AURORA         CLEAR     66  61  82 SE5       29.73S
LEXINGTON      MOCLDY    70  47  43 S5        29.71S
HOLDREGE       PTCLDY    71  55  55 CALM      29.71F
HEBRON         MOCLDY    66  63  89 SE5       29.73S

...NEBRASKA PANHANDLE...

CITY           SKY/WX    TMP DP  RH WIND       PRES   REMARKS
CHADRON        PTCLDY    64  49  57 W3        29.65S
ALLIANCE       MOCLDY    64  40  41 W16G25    29.71S
SCOTTSBLUFF    PTCLDY    66  42  41 W15       29.73R
SIDNEY         LGT RAIN  65  39  38 W12       29.78R

...WESTERN AND NORTH CENTRAL NEBRASKA...

CITY           SKY/WX    TMP DP  RH WIND       PRES   REMARKS
VALENTINE      CLEAR     70  43  37 W14G22    29.66R
AINSWORTH      CLEAR     68  43  40 W7        29.67R
ONEILL         CLEAR     74  48  40 SW5       29.67S
BROKEN BOW     MOCLDY    73  46  38 S6        29.70R
IMPERIAL       PTCLDY    70  42  36 S8        29.74R
NORTH PLATTE   MOCLDY    69  45  41 S7        29.71R
MCCOOK         CLEAR     75  42  30 SE6       29.72S

...EASTERN NEBRASKA...

CITY           SKY/WX    TMP DP  RH WIND       PRES   REMARKS
NORFOLK        CLEAR     66  61  84 SE13      29.72S
SO SIOUX CITY  CLOUDY    67  63  87 SE13      29.75F
TEKAMAH        CLOUDY    67  63  87 S7        29.77R
COLUMBUS       MOCLDY    64  61  88 SE8       29.75S
ALBION         CLEAR     67  60  75 SE8       29.71S
OMAHA EPPLEY   LGT RAIN  66  63  90 S12       29.79S FOG
OFFUTT AFB     CLOUDY    64  64 100 E7        29.77F
MILLARD        RAIN      66  64  93 E10       29.77S
LINCOLN        MOCLDY    64  61  90 S5        29.76S
NEBRASKA CITY  HVY RAIN  65  65 100 NE8       29.79R
BEATRICE       MOCLDY    65  63  94 E8        29.75S
FALLS CITY     MOCLDY    69  64  84 E7        29.74F

...NORTHERN KANSAS...

CITY           SKY/WX    TMP DP  RH WIND       PRES   REMARKS
GOODLAND       CLEAR     70  40  33 S3        29.77S
HILL CITY      CLEAR     77  55  46 SE3       29.69F
NORTON         CLEAR     73  48  40 SE3       29.70
PHILLIPSBURG   CLEAR     77  61  57 E6        29.69F
SMITH CENTER   CLEAR     72  63  73 E8        29.70S
BELOIT         MOCLDY    70  68  94 NE7       29.69R
HAYS           CLEAR     75  63  64 N6        29.67S
RUSSELL        MOCLDY    73  63  70 SE10      29.66S
CONCORDIA      MOCLDY    67  67 100 NW9       29.72R
SALINA         CLOUDY    74  66  76 CALM      29.67S
TOPEKA         PTCLDY    80  58  46 SE12      29.75S



USA.gov is the U.S. government's official web portal to all federal, state and local government web resources and services.